Location: Oak Ridge
(36.0100°N, 84.2700°W)
Time: 15:37:50
(UTC-05:00)

Tiangong 1 - Visible Passes

Search period start: 24 November 2017 00:00
Search period end: 04 December 2017 00:00
Orbit: 283 x 307 km, 42.8° (Epoch: 24 November)

Date Brightness Start Highest point End Pass type
(mag) Time Alt. Az. Time Alt. Az. Time Alt. Az.
24 Nov 3.0 19:14:38 10° WSW 19:15:53 24° W 19:15:53 24° W visible
25 Nov 3.6 19:21:20 10° W 19:22:07 16° WNW 19:22:07 16° WNW visible
26 Nov 0.5 17:52:35 10° WSW 17:55:10 84° SSE 17:57:45 10° ENE visible
26 Nov 4.1 19:28:02 10° WNW 19:28:10 11° WNW 19:28:10 11° WNW visible
27 Nov 1.2 17:58:51 10° W 18:01:22 45° NNW 18:03:41 11° NE visible
28 Nov 2.0 18:05:12 10° WNW 18:07:29 27° NNW 18:09:25 13° NE visible
29 Nov 2.4 18:11:29 10° WNW 18:13:33 20° N 18:15:01 14° NNE visible
30 Nov 2.6 18:17:37 10° NW 18:19:30 18° N 18:20:30 15° NNE visible
01 Dec 2.5 18:23:27 10° NW 18:25:19 18° N 18:25:53 17° NNE visible
02 Dec 2.2 18:28:57 10° NW 18:31:00 20° N 18:31:11 20° NNE visible
03 Dec 1.8 18:34:13 10° NW 18:36:28 27° NNE 18:36:28 27° NNE visible
